STARLINK-32778, 62603

Orbit data source: Space-Track

STARLINK-32778, 62603 is a payload satellite owned by SpaceX/Seattle (US) in LEO that was launched on Mon, 13 Jan 2025 UTC via an FALCON 9 launch vehicle from the Air Force Eastern Test Range (AFETR). Payload-class satellites include a variety of spacecraft equipped with specific instruments for various scientific and technological missions. These include communications satellites like Starlink; space stations such as the ISS; scientific satellites like the Hubble; Earth observation satellites from companies like Planet Labs, Umbra, and HawkEye 360; GPS; miniature CubeSats for education and research; and military/defense satellites.

Loading next visibility...
Identifier
62603, 2025-008S
Orbit
LEO
Country
Flag of USUS
Related business
Manufacturer
SpaceX/Seattle
Mission
Operational Commercial Communications
Bus & Motor
STARLINK V2M, Unknown motor
Mass
730 kg wet, ~700 kg dry
Launch date (UTC)
2025-01-13 (11 months ago)
Launch vehicle
FALCON 9
Launch site
Air Force Eastern Test Range (AFETR)
Object type
Payload
Rocket body
Debris
Shape & HBR
Box + 2 Pan, 17.7 m
Radar Cross Section
33.884 m², Large (>1 m²)

Expand to show TLE details & history
Last TLE update: 16 hours ago

TLE from 16 hours ago
0 STARLINK-32778
1 62603U 25008S   25340.34934460  .00049476  00000-0  17931-2 0  9992
2 62603  43.0032  85.5419 0003109 289.3200  70.7316 15.27620724 51286
Epoch: 2025-12-06T08:23Z
TLE epoch observation values (Epoch: 2025-12-06T08:23:03.373Z)
Latitude
0.00003°
Longitude
-115.60048°
Altitude
482 km
Speed
7.627 km/s
True Right ascension
05h 42m 10s
True Declination
0° 00' 00"
Sunlit
Object was in full shadow at epoch
Visualization orbit readout
Latitude
Unknown
Longitude
Unknown
Altitude
Unknown
Speed
Unknown
Apparent Right ascension
Unknown
Apparent Declination
Unknown
Sunlit
N/A
Visualization observer readout
Local Sidereal Time
22:32:48
Azimuth
Unknown
Elevation
Unknown
Doppler factor
Unknown
Orbital elements
Apogee altitude
487.006 km
Perigee altitude
482.738 km
Semi-major axis
6,863.009 km
Eccentricity
0.00031
Inclination
43.0032°
RAAN
85.5419°
Arg. of periapsis
289.32°
True anomaly
70.76524°
Mean anomaly
70.7316°
Eccentric anomaly
70.74842°
Mean motion
3.81743 °/min
Orbital period
94.3 mins
BSTAR
0.0017931
Loading maneuver chart data...
Computing Atmospheric mass density...
Loading historical data...
Loading historical data...
Loading historical data...
Loading historical data...
Loading historical data...
Loading historical data...
Loading historical data...

Documentation

Showing up to 5 results
|